Home   Weather   Perth   Past weeks
Flag for Australia

Past Weather in Perth, Western Australia, Australia — Yesterday and Last 2 Weeks

Now
68 °F

Passing clouds.


Feels Like: 68 °F
Forecast: 76 / 67 °F
Wind: 6 mph from Northwest

Location: Belmont Perth Airport

Current Time: Feb 21, 2019 at 6:24:48 am

Latest Report: Feb 21, 2019 at 5:30 am


Visibility: N/A

Pressure: 29.89 "Hg

Humidity: 78%

Dew Point: 61 °F

Location of PerthLocation

Past Weather in Perth — Graph

°F

Perth Temperature Yesterday

Maximum temperature yesterday: 88 °F (at 11:30 am)
Minimum temperature yesterday: 68 °F (at 12:00 am)
Average temperature yesterday: 75 °F

High & Low Weather Summary for the Past Weeks

 TemperatureHumidityPressure
High100 °F (Feb 6, 1:30 pm)94% (Feb 14, 6:00 am)30.09 "Hg (Feb 14, 6:00 am)
Low57 °F (Feb 11, 6:00 am)13% (Feb 10, 12:30 pm)29.65 "Hg (Feb 6, 2:40 pm)
Average76 °F48%29.93 "Hg
* Reported Feb 6 5:00 am — Feb 21 5:00 am, Perth. Weather by CustomWeather, © 2019

Note: Actual official high and low records may vary slightly from our data, if they occured in-between our weather recording intervals... More about our weather records

Advertising

Perth Weather History for the Previous 24 Hours

Scroll right to see more
 ConditionsComfort  
Time TempWeatherWind HumidityBarometerVisibility
5:00 am
Thu, Feb 21
66 °FPassing clouds.6 mph83%29.89 "HgN/A
4:30 am66 °FPassing clouds.7 mph83%29.86 "HgN/A
4:00 am64 °FPassing clouds.6 mph88%29.86 "HgN/A
3:30 am66 °FPassing clouds.7 mph83%29.86 "HgN/A
3:00 am66 °FPassing clouds.7 mph83%29.86 "HgN/A
2:30 am68 °FPassing clouds.8 mph78%29.86 "HgN/A
2:00 am68 °FPassing clouds.8 mph78%29.86 "HgN/A
1:30 am70 °FPassing clouds.7 mph73%29.86 "HgN/A
1:00 am70 °FPassing clouds.7 mph73%29.89 "HgN/A
12:30 am70 °FPassing clouds.8 mph73%29.89 "HgN/A
12:00 am70 °FPassing clouds.9 mph73%29.89 "HgN/A
11:30 pm
Wed, Feb 20
70 °FPassing clouds.8 mph73%29.89 "HgN/A
11:00 pm70 °FPassing clouds.8 mph73%29.89 "HgN/A
10:30 pm70 °FPassing clouds.8 mph78%29.89 "HgN/A
10:00 pm70 °FPassing clouds.8 mph78%29.89 "HgN/A
9:38 pm70 °FPassing clouds.8 mph78%29.89 "HgN/A
9:00 pm70 °FClear.7 mph78%29.89 "Hg10 mi
8:30 pm70 °FClear.9 mph78%29.89 "Hg10 mi
8:00 pm70 °FPassing clouds.9 mph73%29.89 "HgN/A
7:30 pm72 °FPassing clouds.9 mph69%29.86 "HgN/A
7:00 pm72 °FSunny.10 mph69%29.86 "Hg10 mi
6:30 pm73 °FSunny.13 mph65%29.86 "Hg10 mi
6:00 pm75 °FSunny.14 mph57%29.86 "Hg10 mi
5:30 pm77 °FSunny.14 mph54%29.86 "Hg10 mi
5:00 pm77 °FSunny.15 mph51%29.86 "Hg10 mi
4:30 pm79 °FSunny.16 mph45%29.83 "Hg10 mi
4:00 pm81 °FSunny.15 mph42%29.83 "Hg10 mi
3:30 pm81 °FSunny.18 mph39%29.83 "Hg10 mi
3:00 pm84 °FSunny.17 mph35%29.83 "Hg10 mi
2:30 pm84 °FSunny.18 mph35%29.83 "Hg10 mi
2:00 pm84 °FSunny.16 mph35%29.83 "Hg10 mi
1:30 pm86 °FSunny.16 mph33%29.83 "Hg10 mi
1:00 pm86 °FSunny.15 mph35%29.83 "Hg10 mi
12:30 pm88 °FSunny.15 mph31%29.83 "Hg10 mi
12:00 pm88 °FPassing clouds.8 mph29%29.83 "HgN/A
11:30 am88 °FSunny.6 mph29%29.83 "Hg10 mi
11:00 am86 °FPassing clouds.7 mph33%29.86 "HgN/A
10:30 am84 °FPassing clouds.6 mph35%29.86 "HgN/A
10:00 am82 °FSunny.3 mph40%29.89 "Hg10 mi
9:00 am79 °FSunny.9 mph42%29.89 "Hg10 mi
8:30 am77 °FPassing clouds.6 mph47%29.89 "HgN/A
8:00 am73 °FSunny.6 mph50%29.89 "Hg10 mi
7:30 am72 °FSunny.5 mph53%29.89 "Hg10 mi
7:00 am70 °FPassing clouds.5 mph57%29.89 "HgN/A
6:30 am68 °FSunny.8 mph60%29.89 "Hg10 mi
6:00 am68 °FSunny.9 mph60%29.89 "Hg10 mi
Weather by CustomWeather, © 2019

See weather overview